Location: Elstree
(51.6403°N, 0.2969°W)
Time: 13:43:44
(UTC+00:00)

Cosmos 1354 Rocket - Pass Details

Date: 26 June 2021
Orbit: 764 x 783 km, 74.0° (Epoch: 25 July)

Event Time Altitude Azimuth Distance (km) Brightness Sun altitude
Rises 21:34:33 0° 333° (NNW) 3,285 9.6 -8.2°
Reaches altitude 10° 21:36:57 10° 331° (NNW) 2,353 8.2 -8.4°
Maximum altitude 21:42:16 69° 249° (WSW) 839 4.3 -8.8°
Enters shadow 21:47:31 10° 167° (SSE) 2,326 5.9 -9.3°
